| time (UTC) | temp C | wind direction | speed KPH | gust KPH | rain 1hr cm | rain 24hr cm | rain mn cm | humidity % | barometer mb |
| 20260504024605 | 7 | 166 | 0.0 | 0.0 | 0.00 | 0.00 | 0.00 | 54 | 1012.3 |
| 20260504023059 | 8 | 166 | 0.0 | 0.0 | 0.00 | 0.00 | 0.00 | 52 | 1012.3 |
| 20260504021559 | 8 | 166 | 0.0 | 0.0 | 0.00 | 0.00 | 0.00 | 52 | 1012.4 |
| 20260504020110 | 10 | 166 | 0.0 | 0.0 | 0.00 | 0.00 | 0.00 | 48 | 1012.3 |
| 20260504014558 | 10 | 167 | 0.0 | 0.0 | 0.00 | 0.00 | 0.00 | 46 | 1012.1 |
| 20260504013058 | 10 | 167 | 0.0 | 0.0 | 0.00 | 0.00 | 0.00 | 46 | 1011.9 |
| 20260504011556 | 10 | 216 | 0.0 | 0.0 | 0.00 | 0.00 | 0.00 | 46 | 1012.0 |
| 20260504010057 | 10 | 222 | 0.0 | 0.0 | 0.00 | 0.00 | 0.00 | 45 | 1012.1 |
| 20260504004556 | 10 | 246 | 0.0 | 0.0 | 0.00 | 0.00 | 0.00 | 45 | 1011.9 |
| 20260504003056 | 11 | 246 | 0.0 | 0.0 | 0.00 | 0.00 | 0.00 | 43 | 1011.8 |
| 20260504001559 | 11 | 246 | 0.0 | 1.6 | 0.00 | 0.00 | 0.00 | 42 | 1011.8 |
| 20260504000056 | 11 | 360 | 0.0 | 6.4 | 0.00 | 0.00 | 0.00 | 41 | 1011.7 |
| 20260503234624 | 12 | 299 | 8.0 | 17.7 | 0.00 | 0.00 | 0.00 | 39 | 1011.6 |
| 20260503233055 | 12 | 279 | 1.6 | 16.1 | 0.00 | 0.00 | 0.00 | 38 | 1011.4 |
| 20260503231555 | 13 | 299 | 4.8 | 14.5 | 0.00 | 0.00 | 0.00 | 37 | 1011.5 |
| 20260503230056 | 12 | 304 | 6.4 | 25.7 | 0.00 | 0.00 | 0.00 | 37 | 1011.4 |
| 20260503224554 | 13 | 304 | 12.9 | 29.0 | 0.00 | 0.00 | 0.00 | 35 | 1011.3 |
| 20260503223054 | 12 | 326 | 1.6 | 17.7 | 0.00 | 0.00 | 0.00 | 38 | 1011.4 |
| 20260503221559 | 12 | 309 | 8.0 | 25.7 | 0.00 | 0.00 | 0.00 | 38 | 1011.3 |
| 20260503220055 | 12 | 295 | 9.7 | 25.7 | 0.00 | 0.00 | 0.00 | 38 | 1011.5 |
| 20260503214554 | 13 | 302 | 6.4 | 29.0 | 0.00 | 0.00 | 0.00 | 37 | 1011.4 |
| 20260503213056 | 12 | 302 | 3.2 | 24.1 | 0.00 | 0.00 | 0.00 | 38 | 1011.3 |
| 20260503211553 | 12 | 324 | 4.8 | 19.3 | 0.00 | 0.00 | 0.00 | 38 | 1011.3 |
| 20260503210052 | 13 | 317 | 6.4 | 22.5 | 0.00 | 0.00 | 0.00 | 36 | 1011.4 |
| 20260503204555 | 12 | 306 | 12.9 | 32.2 | 0.00 | 0.00 | 0.00 | 37 | 1011.4 |
| 20260503203056 | 12 | 312 | 14.5 | 24.1 | 0.00 | 0.00 | 0.00 | 37 | 1011.5 |
| 20260503201552 | 12 | 322 | 11.3 | 22.5 | 0.00 | 0.00 | 0.00 | 38 | 1011.4 |
| 20260503200054 | 12 | 297 | 16.1 | 27.4 | 0.00 | 0.00 | 0.00 | 38 | 1011.6 |
| 20260503194555 | 12 | 299 | 6.4 | 20.9 | 0.00 | 0.00 | 0.00 | 41 | 1012.0 |
| 20260503193044 | 11 | 312 | 16.1 | 25.7 | 0.00 | 0.00 | 0.00 | 40 | 1012.3 |
| 20260503191544 | 11 | 315 | 12.9 | 29.0 | 0.00 | 0.00 | 0.00 | 40 | 1012.4 |
| 20260503190043 | 12 | 306 | 12.9 | 25.7 | 0.00 | 0.00 | 0.00 | 40 | 1012.5 |
| 20260503184541 | 11 | 304 | 12.9 | 30.6 | 0.00 | 0.00 | 0.00 | 38 | 1012.5 |
| 20260503183038 | 12 | 338 | 9.7 | 30.6 | 0.00 | 0.00 | 0.00 | 40 | 1012.6 |
| 20260503181536 | 11 | 306 | 12.9 | 22.5 | 0.00 | 0.00 | 0.00 | 40 | 1012.7 |
| 20260503180035 | 11 | 301 | 16.1 | 25.7 | 0.00 | 0.00 | 0.00 | 39 | 1013.0 |
| 20260503174534 | 11 | 336 | 12.9 | 22.5 | 0.00 | 0.00 | 0.00 | 41 | 1013.0 |
| 20260503173037 | 11 | 340 | 16.1 | 33.8 | 0.00 | 0.00 | 0.00 | 39 | 1013.0 |
| 20260503171535 | 10 | 307 | 11.3 | 25.7 | 0.00 | 0.00 | 0.00 | 39 | 1013.1 |
| 20260503081525 | 2 | 313 | 0.0 | 6.4 | 0.00 | 0.00 | 0.00 | 76 | 1014.2 |
| 20260503071522 | 2 | 298 | 3.2 | 9.7 | 0.00 | 0.00 | 0.00 | 75 | 1014.0 |
| 20260503054512 | 2 | 318 | 0.0 | 0.0 | 0.00 | 0.00 | 0.00 | 73 | 1014.3 |
| 20260503053012 | 2 | 318 | 0.0 | 6.4 | 0.00 | 0.00 | 0.00 | 73 | 1014.3 |
| 20260503051511 | 3 | 318 | 0.0 | 0.0 | 0.00 | 0.00 | 0.00 | 73 | 1014.5 |
| 20260503050022 | 3 | 318 | 0.0 | 0.0 | 0.00 | 0.00 | 0.00 | 73 | 1014.6 |
| 20260503044517 | 3 | 318 | 0.0 | 0.0 | 0.00 | 0.00 | 0.00 | 71 | 1014.6 |
| 20260503043012 | 3 | 318 | 0.0 | 0.0 | 0.00 | 0.00 | 0.00 | 73 | 1014.7 |
| 20260503041512 | 3 | 318 | 0.0 | 0.0 | 0.00 | 0.00 | 0.00 | 73 | 1014.8 |
| 20260503040011 | 3 | 318 | 0.0 | 0.0 | 0.00 | 0.00 | 0.00 | 71 | 1014.9 |
| 20260503034511 | 3 | 318 | 0.0 | 0.0 | 0.00 | 0.00 | 0.00 | 70 | 1014.9 |
| 20260503033010 | 3 | 321 | 6.4 | 11.3 | 0.00 | 0.00 | 0.00 | 69 | 1014.8 |
| 20260503031510 | 3 | 304 | 4.8 | 12.9 | 0.00 | 0.00 | 0.00 | 69 | 1014.8 |
| 20260503030009 | 3 | 349 | 4.8 | 12.9 | 0.00 | 0.00 | 0.00 | 69 | 1014.9 |